Location: Chiroubles
(46.1812°N, 4.6660°E)
Time: 02:04:01
(UTC+00:00)

Cosmos 1980 - Pass Details

Date: 15 August 2020
Orbit: 838 x 848 km, 71.0° (Epoch: 19 September)

Event Time Altitude Azimuth Distance (km) Brightness Sun altitude
Rises 22:28:15 0° 337° (NNW) 3,416 8.1 -27.7°
Reaches altitude 10° 22:30:49 10° 343° (NNW) 2,478 7.1 -27.8°
Maximum altitude 22:36:17 46° 56° (ENE) 1,125 4.3 -28.1°
Enters shadow 22:36:41 45° 69° (ENE) 1,137 4.3 -28.2°
